Weather History for Medicine Lodge, KS

Change the Weather History Date:

Wednesday, December 21, 2011

  Actual Average Record
Temperature  
Mean Temperature 34 °F 33 °F  
Max Temperature 43 °F 45 °F 73 °F (1933)
Min Temperature 25 °F 22 °F -6 °F (1983)
Degree Days  
Heating Degree Days 31 32  
Month to date heating degree days 621  
Since 1 July heating degree days 1479  
Cooling Degree Days 0 0  
Month to date cooling degree days 0  
Year to date cooling degree days 1770  
Moisture  
Dew Point 28 °F    
Average Humidity 81    
Maximum Humidity 92    
Minimum Humidity 67    
Precipitation  
Precipitation 0.00 in 0.03 in 0.72 in (1949)
Month to date precipitation 0.65  
Year to date precipitation 26.87  
Snow  
Snow 0.00 in 0.10 in - ()
Month to date snowfall 2.0  
Since 1 July snowfall 2.2  
Snow Depth -    
Sea Level Pressure  
Sea Level Pressure 29.87 in    
Wind  
Wind Speed 3 mph (SSE)    
Max Wind Speed 12 mph    
Max Gust Speed -    
T = Trace of Precipitation, MM = Missing Value Source: NWS Daily Summary

Daily Weather History Graph

Daily Weather History Graph

Search for Another Location

Airport:

Trip Planner

Search our weather history database for the weather conditions in past years. The results will help you decide how hot, cold, wet, or windy it might be!

Date:

Astronomy

Dec. 21, 2011 Rise Set
Actual Time 7:44 AM CST 5:20 PM CST
Civil Twilight 7:15 AM CST 5:49 PM CST
Nautical Twilight 6:42 AM CST 6:22 PM CST
Astronomical Twilight 6:10 AM CST 6:53 PM CST
Moon 4:20 AM CST (12/21) 2:39 PM CST (12/21)
Length of Visible Light 10h 34m
Length of Day
9h 35m
Waning Crescent, 12% of the Moon is Illuminated
Dec 21
Waning Crescent
Dec 24
New
Jan 1
First Quarter
Jan 9
Full
Jan 16
Last Quarter

Hourly Weather History & Observations

Time (CST) Temp. Windchill Dew Point Humidity Pressure Visibility Wind Dir Wind Speed Gust Speed Precip Events Conditions
12:56 AM 27.0 °F - 23.0 °F 85% 29.92 in - Calm Calm - N/A   Unknown
1:56 AM 27.0 °F - 21.9 °F 81% - - Calm Calm - N/A   Unknown
2:56 AM 26.1 °F - 23.0 °F 88% - - Calm Calm - N/A   Unknown
3:56 AM 27.0 °F 19.5 °F 23.0 °F 85% - - SSW 6.9 mph - N/A   Unknown
4:56 AM 27.0 °F 21.6 °F 21.9 °F 81% - - WSW 4.6 mph - N/A   Unknown
5:56 AM 26.1 °F - 21.9 °F 84% - - Calm Calm - N/A   Unknown
6:56 AM 26.1 °F - 21.9 °F 84% 29.88 in - Calm Calm - N/A   Unknown
7:56 AM 25.0 °F - 21.9 °F 88% 29.89 in - Calm Calm - N/A   Unknown
8:56 AM 28.0 °F 24.2 °F 24.1 °F 85% 29.89 in - SW 3.5 mph - N/A   Unknown
9:56 AM 30.9 °F 24.3 °F 26.1 °F 82% 29.91 in - SSE 6.9 mph - N/A   Unknown
10:56 AM 34.0 °F 27.2 °F 28.0 °F 79% 29.91 in - South 8.1 mph - N/A   Unknown
11:56 AM 36.0 °F 28.0 °F 28.0 °F 73% 29.88 in - SSW 11.5 mph - N/A   Unknown
12:56 PM 39.0 °F 32.3 °F 30.0 °F 70% 29.85 in - South 10.4 mph - N/A   Unknown
1:56 PM 41.0 °F 35.2 °F 30.9 °F 67% 29.81 in - South 9.2 mph - N/A   Unknown
2:56 PM 43.0 °F 39.5 °F 33.1 °F 68% 29.79 in - SSW 5.8 mph - N/A   Unknown
3:56 PM 43.0 °F 39.5 °F 33.1 °F 68% 29.81 in - SSW 5.8 mph - N/A   Unknown
4:56 PM 43.0 °F - 33.1 °F 68% 29.81 in - Calm Calm - N/A   Unknown
5:56 PM 39.9 °F 35.8 °F 33.1 °F 77% 29.83 in - East 5.8 mph - N/A   Unknown
6:56 PM 34.0 °F 31.0 °F 30.9 °F 89% 29.85 in - NNE 3.5 mph - N/A   Unknown
7:56 PM 34.0 °F 31.0 °F 32.0 °F 92% 29.87 in - ENE 3.5 mph - N/A   Unknown
8:56 PM 37.0 °F - 34.0 °F 89% 29.88 in - Calm Calm - N/A   Unknown
9:56 PM 39.9 °F 35.1 °F 36.0 °F 86% 29.88 in - ENE 6.9 mph - N/A   Unknown
10:56 PM 39.0 °F 34.0 °F 35.1 °F 86% 29.89 in - ENE 6.9 mph - N/A   Unknown
11:56 PM 37.9 °F 32.1 °F 35.1 °F 89% 29.89 in - North 8.1 mph - N/A   Unknown